Time,TemperatureF,DewpointF,PressureIn,WindDirection,WindDirectionDegrees,WindSpeedMPH,WindSpeedGustMPH,Humidity,HourlyPrecipIn,Conditions,Clouds,dailyrainin,SoftwareType,DateUTC
2013-04-13 00:00:00,72.3,58.6,29.88,SSE,152,0.0,0.0,62,0.00,,---,0.00,VWS V14.01,2013-04-13 04:00:00,
2013-04-13 00:05:00,72.3,58.6,29.88,SSW,196,0.0,0.0,62,0.00,,---,0.00,VWS V14.01,2013-04-13 04:05:00,
2013-04-13 00:10:00,72.3,59.0,29.88,SSE,164,0.0,0.0,63,0.00,,---,0.00,VWS V14.01,2013-04-13 04:10:00,
2013-04-13 00:15:00,72.1,58.9,29.88,SSE,160,0.0,0.0,63,0.00,,---,0.00,VWS V14.01,2013-04-13 04:15:00,
2013-04-13 00:20:00,72.1,58.9,29.88,South,191,0.0,0.0,63,0.00,,---,0.00,VWS V14.01,2013-04-13 04:20:00,
2013-04-13 00:25:00,72.1,58.9,29.88,South,178,0.0,0.0,63,0.00,,---,0.00,VWS V14.01,2013-04-13 04:25:00,
2013-04-13 00:30:00,72.1,58.9,29.88,SE,145,0.0,0.0,63,0.00,,---,0.00,VWS V14.01,2013-04-13 04:30:00,
2013-04-13 00:35:00,72.3,59.0,29.88,SE,136,0.0,0.0,63,0.00,,---,0.00,VWS V14.01,2013-04-13 04:35:00,
2013-04-13 00:40:00,72.3,59.0,29.88,SE,136,0.0,0.0,63,0.00,,---,0.00,VWS V14.01,2013-04-13 04:40:00,
2013-04-13 00:45:00,72.1,58.9,29.88,SE,136,0.0,0.0,63,0.00,,---,0.00,VWS V14.01,2013-04-13 04:45:00,
2013-04-13 00:50:00,72.1,58.4,29.88,SE,136,0.0,0.0,62,0.00,,---,0.00,VWS V14.01,2013-04-13 04:50:00,
2013-04-13 00:55:00,71.8,58.1,29.88,SE,136,0.0,0.0,62,0.00,,---,0.00,VWS V14.01,2013-04-13 04:55:00,
2013-04-13 01:00:00,71.6,57.9,29.88,SE,136,0.0,0.0,62,0.00,,---,0.00,VWS V14.01,2013-04-13 05:00:00,
2013-04-13 01:05:00,71.4,58.2,29.88,SE,136,0.0,0.0,63,0.00,,---,0.00,VWS V14.01,2013-04-13 05:05:00,
2013-04-13 01:10:00,71.1,57.8,29.88,SE,136,0.0,0.0,63,0.00,,---,0.00,VWS V14.01,2013-04-13 05:10:00,
2013-04-13 01:15:00,71.1,58.3,29.88,SSW,194,0.0,0.0,64,0.00,,---,0.00,VWS V14.01,2013-04-13 05:15:00,
2013-04-13 01:20:00,70.9,58.5,29.88,SSW,194,0.0,0.0,65,0.00,,---,0.00,VWS V14.01,2013-04-13 05:20:00,
2013-04-13 01:25:00,70.7,58.4,29.88,SSW,194,0.0,0.0,65,0.00,,---,0.00,VWS V14.01,2013-04-13 05:25:00,
2013-04-13 01:30:00,70.5,58.2,29.88,SSW,194,0.0,0.0,65,0.00,,---,0.00,VWS V14.01,2013-04-13 05:30:00,
2013-04-13 01:35:00,70.7,58.8,29.88,SSW,194,0.0,0.0,66,0.00,,---,0.00,VWS V14.01,2013-04-13 05:35:00,
2013-04-13 01:40:00,70.9,59.0,29.88,SSW,194,0.0,0.0,66,0.00,,---,0.00,VWS V14.01,2013-04-13 05:40:00,
2013-04-13 01:45:00,70.9,58.5,29.88,SSW,194,0.0,0.0,65,0.00,,---,0.00,VWS V14.01,2013-04-13 05:45:00,
2013-04-13 01:50:00,70.9,59.0,29.88,SSW,194,0.0,0.0,66,0.00,,---,0.00,VWS V14.01,2013-04-13 05:50:00,
2013-04-13 01:55:00,70.9,58.5,29.88,SSW,194,0.0,0.0,65,0.00,,---,0.00,VWS V14.01,2013-04-13 05:55:00,
2013-04-13 02:00:00,70.7,58.4,29.88,SSW,194,0.0,0.0,65,0.00,,---,0.00,VWS V14.01,2013-04-13 06:00:00,
2013-04-13 02:05:00,70.7,58.8,29.88,SSW,194,0.0,0.0,66,0.00,,---,0.00,VWS V14.01,2013-04-13 06:05:00,
2013-04-13 02:10:00,70.3,58.9,29.88,SSW,194,0.0,0.0,67,0.00,,---,0.00,VWS V14.01,2013-04-13 06:10:00,
2013-04-13 02:15:00,70.2,58.3,29.88,SSW,194,0.0,0.0,66,0.00,,---,0.00,VWS V14.01,2013-04-13 06:15:00,
2013-04-13 02:20:00,70.0,58.1,29.88,SSW,194,0.0,0.0,66,0.00,,---,0.00,VWS V14.01,2013-04-13 06:20:00,
2013-04-13 02:26:00,69.8,57.9,29.88,SSW,194,0.0,0.0,66,0.00,,---,0.00,VWS V14.01,2013-04-13 06:26:00,
2013-04-13 02:31:00,69.6,57.8,29.88,SSW,194,0.0,0.0,66,0.00,,---,0.00,VWS V14.01,2013-04-13 06:31:00,
2013-04-13 02:36:00,69.6,58.2,29.88,SSW,194,0.0,0.0,67,0.00,,---,0.00,VWS V14.01,2013-04-13 06:36:00,
2013-04-13 02:41:00,69.4,58.0,29.88,SSW,194,0.0,0.0,67,0.00,,---,0.00,VWS V14.01,2013-04-13 06:41:00,
2013-04-13 02:46:00,69.3,57.8,29.88,SSW,194,0.0,0.0,67,0.00,,---,0.00,VWS V14.01,2013-04-13 06:46:00,
2013-04-13 02:51:00,69.1,57.7,29.88,SSW,194,0.0,0.0,67,0.00,,---,0.00,VWS V14.01,2013-04-13 06:51:00,
2013-04-13 02:56:00,68.9,57.5,29.88,SSW,194,0.0,0.0,67,0.00,,---,0.00,VWS V14.01,2013-04-13 06:56:00,
2013-04-13 03:01:00,68.9,57.5,29.88,SSW,194,0.0,0.0,67,0.00,,---,0.00,VWS V14.01,2013-04-13 07:01:00,
2013-04-13 03:06:00,68.7,57.7,29.88,SSW,194,0.0,0.0,68,0.00,,---,0.00,VWS V14.01,2013-04-13 07:06:00,
2013-04-13 03:11:00,68.5,57.6,29.88,SSW,194,0.0,0.0,68,0.00,,---,0.00,VWS V14.01,2013-04-13 07:11:00,
2013-04-13 03:17:00,68.5,59.2,29.88,SSW,194,0.0,0.0,72,0.00,,---,0.00,VWS V14.01,2013-04-13 07:17:00,
2013-04-13 03:22:00,68.4,58.2,29.88,SSW,194,0.0,0.0,70,0.00,,---,0.00,VWS V14.01,2013-04-13 07:22:00,
2013-04-13 03:27:00,68.2,58.0,29.88,SSW,194,0.0,0.0,70,0.00,,---,0.00,VWS V14.01,2013-04-13 07:27:00,
2013-04-13 03:32:00,68.0,57.9,29.88,SSW,194,0.0,0.0,70,0.00,,---,0.00,VWS V14.01,2013-04-13 07:32:00,
2013-04-13 03:37:00,68.0,57.9,29.88,SSW,194,0.0,0.0,70,0.00,,---,0.00,VWS V14.01,2013-04-13 07:37:00,
2013-04-13 03:42:00,68.0,57.9,29.88,SSW,194,0.0,0.0,70,0.00,,---,0.00,VWS V14.01,2013-04-13 07:42:00,
2013-04-13 03:47:00,68.0,57.9,29.85,SSW,194,0.0,0.0,70,0.00,,---,0.00,VWS V14.01,2013-04-13 07:47:00,
2013-04-13 03:52:00,68.0,58.3,29.85,SSW,194,0.0,0.0,71,0.00,,---,0.00,VWS V14.01,2013-04-13 07:52:00,
2013-04-13 03:57:00,68.0,58.3,29.85,SSW,194,0.0,0.0,71,0.00,,---,0.00,VWS V14.01,2013-04-13 07:57:00,
2013-04-13 04:02:00,68.0,58.3,29.88,SSW,194,0.0,0.0,71,0.00,,---,0.00,VWS V14.01,2013-04-13 08:02:00,
2013-04-13 04:07:00,68.0,58.3,29.88,SSW,194,0.0,0.0,71,0.00,,---,0.00,VWS V14.01,2013-04-13 08:07:00,
2013-04-13 04:12:00,68.0,58.7,29.88,SSW,194,0.0,0.0,72,0.00,,---,0.00,VWS V14.01,2013-04-13 08:12:00,
2013-04-13 04:18:00,68.0,58.7,29.88,SSW,194,0.0,0.0,72,0.00,,---,0.00,VWS V14.01,2013-04-13 08:18:00,
2013-04-13 04:23:00,68.0,58.7,29.88,SSW,194,0.0,0.0,72,0.00,,---,0.00,VWS V14.01,2013-04-13 08:23:00,
2013-04-13 04:28:00,68.0,58.7,29.88,SSW,194,0.0,0.0,72,0.00,,---,0.00,VWS V14.01,2013-04-13 08:28:00,
2013-04-13 04:33:00,68.0,59.0,29.88,SSW,194,0.0,0.0,73,0.00,,---,0.00,VWS V14.01,2013-04-13 08:33:00,
2013-04-13 04:38:00,68.0,59.0,29.88,SSW,194,0.0,0.0,73,0.00,,---,0.00,VWS V14.01,2013-04-13 08:38:00,
2013-04-13 04:43:00,68.2,59.2,29.88,SSW,194,0.0,0.0,73,0.00,,---,0.00,VWS V14.01,2013-04-13 08:43:00,
2013-04-13 04:48:00,68.2,60.0,29.88,SSW,194,0.0,0.0,75,0.00,,---,0.00,VWS V14.01,2013-04-13 08:48:00,
2013-04-13 04:53:00,68.4,60.1,29.88,SSW,194,0.0,0.0,75,0.00,,---,0.00,VWS V14.01,2013-04-13 08:53:00,
2013-04-13 04:58:00,68.4,60.1,29.88,SSW,194,0.0,0.0,75,0.00,,---,0.00,VWS V14.01,2013-04-13 08:58:00,
2013-04-13 05:03:00,68.5,60.3,29.88,SSW,194,0.0,0.0,75,0.00,,---,0.00,VWS V14.01,2013-04-13 09:03:00,
2013-04-13 05:08:00,68.7,61.2,29.88,SSW,194,0.0,0.0,77,0.00,,---,0.00,VWS V14.01,2013-04-13 09:08:00,
2013-04-13 05:14:00,68.7,61.6,29.88,SSW,194,0.0,0.0,78,0.00,,---,0.00,VWS V14.01,2013-04-13 09:14:00,
2013-04-13 05:19:00,68.7,61.6,29.88,SSW,194,0.0,0.0,78,0.00,,---,0.00,VWS V14.01,2013-04-13 09:19:00,
2013-04-13 05:24:00,68.7,61.2,29.88,SSW,194,0.0,0.0,77,0.00,,---,0.00,VWS V14.01,2013-04-13 09:24:00,
2013-04-13 05:29:00,68.5,60.7,29.88,SSW,194,0.0,0.0,76,0.00,,---,0.00,VWS V14.01,2013-04-13 09:29:00,
2013-04-13 05:34:00,68.4,60.5,29.88,SSW,194,0.0,0.0,76,0.00,,---,0.00,VWS V14.01,2013-04-13 09:34:00,
2013-04-13 05:39:00,68.2,60.3,29.88,SSW,194,0.0,0.0,76,0.00,,---,0.00,VWS V14.01,2013-04-13 09:39:00,
2013-04-13 05:44:00,68.0,60.2,29.88,SSW,194,0.0,0.0,76,0.00,,---,0.00,VWS V14.01,2013-04-13 09:44:00,
2013-04-13 05:49:00,67.8,60.3,29.88,SSW,194,0.0,0.0,77,0.00,,---,0.00,VWS V14.01,2013-04-13 09:49:00,
2013-04-13 05:54:00,67.8,60.3,29.88,SSW,194,0.0,0.0,77,0.00,,---,0.00,VWS V14.01,2013-04-13 09:54:00,
2013-04-13 05:59:00,67.8,60.3,29.88,SSW,194,0.0,0.0,77,0.00,,---,0.00,VWS V14.01,2013-04-13 09:59:00,
2013-04-13 06:04:00,68.2,63.2,29.88,SW,217,0.0,0.0,84,0.00,,---,0.00,VWS V14.01,2013-04-13 10:04:00,
2013-04-13 06:09:00,68.2,63.2,29.88,WNW,284,0.0,0.0,84,0.00,,---,0.00,VWS V14.01,2013-04-13 10:09:00,
2013-04-13 06:14:00,68.4,62.7,29.88,NW,306,0.0,0.0,82,0.00,,---,0.00,VWS V14.01,2013-04-13 10:14:00,
2013-04-13 06:19:00,68.4,62.7,29.88,North,353,0.0,4.0,82,0.00,,---,0.00,VWS V14.01,2013-04-13 10:19:00,
2013-04-13 06:24:00,68.4,62.0,29.88,East,98,2.2,2.7,80,0.00,,---,0.00,VWS V14.01,2013-04-13 10:24:00,
2013-04-13 06:29:00,68.4,61.2,29.88,NNE,13,0.0,0.0,78,0.00,,---,0.00,VWS V14.01,2013-04-13 10:29:00,
2013-04-13 06:34:00,68.2,60.7,29.88,SW,233,3.6,3.6,77,0.00,,---,0.00,VWS V14.01,2013-04-13 10:34:00,
2013-04-13 06:39:00,68.2,59.6,29.88,ENE,68,0.0,3.6,74,0.00,,---,0.00,VWS V14.01,2013-04-13 10:39:00,
2013-04-13 06:44:00,67.8,58.1,29.88,North,353,0.0,5.4,71,0.00,,---,0.00,VWS V14.01,2013-04-13 10:44:00,
2013-04-13 06:50:00,68.0,57.9,29.88,NE,48,0.0,3.1,70,0.00,,---,0.00,VWS V14.01,2013-04-13 10:50:00,
2013-04-13 06:55:00,67.8,57.3,29.88,NE,35,0.0,0.0,69,0.00,,---,0.00,VWS V14.01,2013-04-13 10:55:00,
2013-04-13 07:00:00,67.6,56.3,29.91,ENE,57,0.0,2.7,67,0.00,,---,0.00,VWS V14.01,2013-04-13 11:00:00,
2013-04-13 07:05:00,67.1,54.1,29.91,ENE,59,2.7,4.9,63,0.00,,---,0.00,VWS V14.01,2013-04-13 11:05:00,
2013-04-13 07:10:00,67.3,54.7,29.91,NNE,22,3.1,3.1,64,0.00,,---,0.00,VWS V14.01,2013-04-13 11:10:00,
2013-04-13 07:15:00,67.1,53.2,29.91,SSW,206,0.0,0.0,61,0.00,,---,0.00,VWS V14.01,2013-04-13 11:15:00,
2013-04-13 07:20:00,67.1,51.8,29.91,North,353,3.1,3.1,58,0.00,,---,0.00,VWS V14.01,2013-04-13 11:20:00,
2013-04-13 07:25:00,66.9,51.2,29.91,NW,323,0.0,0.0,57,0.00,,---,0.00,VWS V14.01,2013-04-13 11:25:00,
2013-04-13 07:30:00,67.1,51.8,29.91,WSW,247,0.0,0.0,58,0.00,,---,0.00,VWS V14.01,2013-04-13 11:30:00,
2013-04-13 07:35:00,66.9,50.7,29.91,SSW,204,0.0,0.0,56,0.00,,---,0.00,VWS V14.01,2013-04-13 11:35:00,
2013-04-13 07:40:00,66.7,49.1,29.91,NE,53,3.1,3.6,53,0.00,,---,0.00,VWS V14.01,2013-04-13 11:40:00,
2013-04-13 07:45:00,66.7,49.6,29.94,ENE,67,0.0,0.0,54,0.00,,---,0.00,VWS V14.01,2013-04-13 11:45:00,
2013-04-13 07:50:00,66.6,48.9,29.94,NNE,12,0.0,0.0,53,0.00,,---,0.00,VWS V14.01,2013-04-13 11:50:00,
2013-04-13 07:55:00,66.6,48.9,29.94,North,353,3.1,3.1,53,0.00,,---,0.00,VWS V14.01,2013-04-13 11:55:00,
2013-04-13 08:00:00,66.6,47.9,29.94,ENE,76,0.0,0.0,51,0.00,,---,0.00,VWS V14.01,2013-04-13 12:00:00,
2013-04-13 08:05:00,66.4,46.1,29.94,South,183,0.0,0.0,48,0.00,,---,0.00,VWS V14.01,2013-04-13 12:05:00,
2013-04-13 08:10:00,66.4,46.7,29.94,North,350,0.0,0.0,49,0.00,,---,0.00,VWS V14.01,2013-04-13 12:10:00,
2013-04-13 08:16:00,66.4,47.2,29.94,NNW,346,3.1,4.0,50,0.00,,---,0.00,VWS V14.01,2013-04-13 12:16:00,
2013-04-13 08:21:00,66.2,46.0,29.94,West,278,0.0,3.6,48,0.00,,---,0.00,VWS V14.01,2013-04-13 12:21:00,
2013-04-13 08:26:00,66.2,44.8,29.94,WNW,298,3.1,3.1,46,0.00,,---,0.00,VWS V14.01,2013-04-13 12:26:00,
2013-04-13 08:31:00,66.4,45.0,29.94,ENE,77,0.0,6.3,46,0.00,,---,0.00,VWS V14.01,2013-04-13 12:31:00,
2013-04-13 08:36:00,66.4,44.4,29.94,WNW,302,3.6,3.6,45,0.00,,---,0.00,VWS V14.01,2013-04-13 12:36:00,
2013-04-13 08:41:00,66.6,45.7,29.94,ENE,63,0.0,0.0,47,0.00,,---,0.00,VWS V14.01,2013-04-13 12:41:00,
2013-04-13 08:46:00,66.4,43.8,29.94,NNW,340,2.7,3.6,44,0.00,,---,0.00,VWS V14.01,2013-04-13 12:46:00,
2013-04-13 08:51:00,66.6,44.0,29.94,North,5,2.2,4.9,44,0.00,,---,0.00,VWS V14.01,2013-04-13 12:51:00,
2013-04-13 08:56:00,66.6,44.0,29.94,WNW,295,2.2,3.1,44,0.00,,---,0.00,VWS V14.01,2013-04-13 12:56:00,
2013-04-13 09:02:00,66.6,43.4,29.94,ENE,57,2.7,2.7,43,0.00,,---,0.00,VWS V14.01,2013-04-13 13:02:00,
2013-04-13 09:07:00,66.4,43.2,29.94,NE,45,4.0,5.4,43,0.00,,---,0.00,VWS V14.01,2013-04-13 13:07:00,
2013-04-13 09:12:00,66.6,43.4,29.94,NNE,19,0.0,0.0,43,0.00,,---,0.00,VWS V14.01,2013-04-13 13:12:00,
2013-04-13 09:17:00,66.6,43.4,29.97,West,264,0.0,0.0,43,0.00,,---,0.00,VWS V14.01,2013-04-13 13:17:00,
2013-04-13 09:22:00,66.6,43.4,29.97,North,357,0.0,0.0,43,0.00,,---,0.00,VWS V14.01,2013-04-13 13:22:00,
2013-04-13 09:27:00,66.7,43.5,29.97,ENE,77,0.0,0.0,43,0.00,,---,0.00,VWS V14.01,2013-04-13 13:27:00,
2013-04-13 09:32:00,67.1,43.9,29.97,NNE,24,7.2,7.2,43,0.00,,---,0.00,VWS V14.01,2013-04-13 13:32:00,
2013-04-13 09:37:00,67.3,44.0,29.97,NNW,339,2.7,4.9,43,0.00,,---,0.00,VWS V14.01,2013-04-13 13:37:00,
2013-04-13 09:43:00,67.5,43.6,29.94,NE,34,3.6,3.6,42,0.00,,---,0.00,VWS V14.01,2013-04-13 13:43:00,
2013-04-13 09:48:00,67.5,43.6,29.94,West,271,0.0,0.0,42,0.00,,---,0.00,VWS V14.01,2013-04-13 13:48:00,
2013-04-13 09:53:00,67.5,43.6,29.94,ENE,60,0.0,0.0,42,0.00,,---,0.00,VWS V14.01,2013-04-13 13:53:00,
2013-04-13 09:58:00,68.0,44.1,29.97,NE,37,7.6,7.6,42,0.00,,---,0.00,VWS V14.01,2013-04-13 13:58:00,
2013-04-13 10:03:00,68.7,44.7,29.97,NW,323,2.2,2.7,42,0.00,,---,0.00,VWS V14.01,2013-04-13 14:03:00,
2013-04-13 10:08:00,69.4,45.4,29.97,NNW,333,0.0,2.7,42,0.00,,---,0.00,VWS V14.01,2013-04-13 14:08:00,
2013-04-13 10:13:00,69.4,44.1,29.97,ENE,73,4.0,4.0,40,0.00,,---,0.00,VWS V14.01,2013-04-13 14:13:00,
2013-04-13 10:18:00,69.3,43.9,29.97,ENE,58,2.2,2.2,40,0.00,,---,0.00,VWS V14.01,2013-04-13 14:18:00,
2013-04-13 10:23:00,69.3,43.9,29.97,NNE,20,3.1,3.1,40,0.00,,---,0.00,VWS V14.01,2013-04-13 14:23:00,
2013-04-13 10:28:00,69.4,44.1,29.97,ENE,64,5.8,5.8,40,0.00,,---,0.00,VWS V14.01,2013-04-13 14:28:00,
2013-04-13 10:33:00,69.3,43.9,29.97,NE,51,5.4,6.3,40,0.00,,---,0.00,VWS V14.01,2013-04-13 14:33:00,
2013-04-13 10:38:00,69.4,44.1,29.97,ENE,72,0.0,0.0,40,0.00,,---,0.00,VWS V14.01,2013-04-13 14:38:00,
2013-04-13 10:43:00,69.8,43.8,29.97,NNW,334,0.0,0.0,39,0.00,,---,0.00,VWS V14.01,2013-04-13 14:43:00,
2013-04-13 10:48:00,70.0,43.9,29.97,West,265,2.2,2.7,39,0.00,,---,0.00,VWS V14.01,2013-04-13 14:48:00,
2013-04-13 10:54:00,70.3,44.2,29.97,ESE,114,0.0,0.0,39,0.00,,---,0.00,VWS V14.01,2013-04-13 14:54:00,
2013-04-13 10:59:00,70.9,44.7,29.97,NNE,26,3.1,4.9,39,0.00,,---,0.00,VWS V14.01,2013-04-13 14:59:00,
2013-04-13 11:04:00,71.1,44.9,29.97,NNE,18,2.7,4.0,39,0.00,,---,0.00,VWS V14.01,2013-04-13 15:04:00,
2013-04-13 11:09:00,71.2,45.0,29.97,ESE,104,2.7,4.0,39,0.00,,---,0.00,VWS V14.01,2013-04-13 15:09:00,
2013-04-13 11:14:00,71.6,45.4,29.97,WNW,285,0.0,0.0,39,0.00,,---,0.00,VWS V14.01,2013-04-13 15:14:00,
2013-04-13 11:19:00,72.1,45.8,29.97,North,357,0.0,2.7,39,0.00,,---,0.00,VWS V14.01,2013-04-13 15:19:00,
2013-04-13 11:24:00,72.3,46.0,29.97,NE,54,3.1,3.6,39,0.00,,---,0.00,VWS V14.01,2013-04-13 15:24:00,
2013-04-13 11:30:00,72.7,46.3,29.97,NNE,27,3.1,3.6,39,0.00,,---,0.00,VWS V14.01,2013-04-13 15:30:00,
2013-04-13 11:35:00,72.9,46.5,29.97,North,357,2.2,3.1,39,0.00,,---,0.00,VWS V14.01,2013-04-13 15:35:00,
2013-04-13 11:40:00,73.0,46.6,29.97,ENE,70,0.0,2.7,39,0.00,,---,0.00,VWS V14.01,2013-04-13 15:40:00,
2013-04-13 11:45:00,73.4,46.3,29.97,ENE,66,0.0,3.1,38,0.00,,---,0.00,VWS V14.01,2013-04-13 15:45:00,
2013-04-13 11:50:00,73.9,46.8,29.97,East,80,5.4,5.4,38,0.00,,---,0.00,VWS V14.01,2013-04-13 15:50:00,
2013-04-13 11:55:00,74.3,47.1,29.97,ENE,66,2.2,2.7,38,0.00,,---,0.00,VWS V14.01,2013-04-13 15:55:00,
2013-04-13 12:00:00,74.7,47.4,29.97,SE,125,4.0,4.0,38,0.00,,---,0.00,VWS V14.01,2013-04-13 16:00:00,
2013-04-13 12:05:00,75.2,47.9,29.97,North,0,3.1,3.1,38,0.00,,---,0.00,VWS V14.01,2013-04-13 16:05:00,
2013-04-13 12:10:00,75.9,48.5,29.97,NE,54,2.2,6.3,38,0.00,,---,0.00,VWS V14.01,2013-04-13 16:10:00,
2013-04-13 12:15:00,76.1,48.7,29.97,NNE,30,3.6,3.6,38,0.00,,---,0.00,VWS V14.01,2013-04-13 16:15:00,
2013-04-13 12:20:00,76.3,48.8,29.97,East,89,3.6,4.0,38,0.00,,---,0.00,VWS V14.01,2013-04-13 16:20:00,
2013-04-13 12:25:00,76.5,49.0,29.97,NNE,30,2.7,4.0,38,0.00,,---,0.00,VWS V14.01,2013-04-13 16:25:00,
2013-04-13 12:30:00,76.5,49.0,29.97,SSW,195,0.0,0.0,38,0.00,,---,0.00,VWS V14.01,2013-04-13 16:30:00,
2013-04-13 12:35:00,76.1,48.7,29.97,NNE,24,6.3,6.3,38,0.00,,---,0.00,VWS V14.01,2013-04-13 16:35:00,
2013-04-13 12:40:00,76.3,46.7,29.97,SW,230,0.0,4.0,35,0.00,,---,0.00,VWS V14.01,2013-04-13 16:40:00,
2013-04-13 12:45:00,76.1,46.5,29.97,ENE,71,0.0,0.0,35,0.00,,---,0.00,VWS V14.01,2013-04-13 16:45:00,
2013-04-13 12:50:00,76.1,46.5,29.97,ENE,70,3.1,3.1,35,0.00,,---,0.00,VWS V14.01,2013-04-13 16:50:00,
2013-04-13 12:55:00,76.5,46.8,29.97,NNW,340,2.2,2.7,35,0.00,,---,0.00,VWS V14.01,2013-04-13 16:55:00,
2013-04-13 13:00:00,77.0,49.5,29.97,ESE,116,0.0,0.0,38,0.00,,---,0.00,VWS V14.01,2013-04-13 17:00:00,
2013-04-13 13:05:00,77.7,47.9,29.97,South,185,0.0,0.0,35,0.00,,---,0.00,VWS V14.01,2013-04-13 17:05:00,
2013-04-13 13:10:00,77.7,50.1,29.97,NNE,23,0.0,0.0,38,0.00,,---,0.00,VWS V14.01,2013-04-13 17:10:00,
2013-04-13 13:15:00,78.1,48.2,29.97,NNE,33,3.1,4.5,35,0.00,,---,0.00,VWS V14.01,2013-04-13 17:15:00,
2013-04-13 13:20:00,78.4,50.8,29.97,NNE,24,0.0,2.7,38,0.00,,---,0.00,VWS V14.01,2013-04-13 17:20:00,
2013-04-13 13:25:00,78.8,48.9,29.97,NE,50,3.1,4.0,35,0.00,,---,0.00,VWS V14.01,2013-04-13 17:25:00,
2013-04-13 13:30:00,78.8,48.9,29.97,NNE,16,4.0,4.0,35,0.00,,---,0.00,VWS V14.01,2013-04-13 17:30:00,
2013-04-13 13:35:00,79.2,49.2,29.97,NE,54,2.7,3.1,35,0.00,,---,0.00,VWS V14.01,2013-04-13 17:35:00,
2013-04-13 13:40:00,79.5,49.5,29.97,NE,44,2.2,4.5,35,0.00,,---,0.00,VWS V14.01,2013-04-13 17:40:00,
2013-04-13 13:45:00,79.9,49.8,29.97,North,4,0.0,0.0,35,0.00,,---,0.00,VWS V14.01,2013-04-13 17:45:00,
2013-04-13 13:51:00,80.4,51.8,29.97,NNE,27,2.7,3.6,37,0.00,,---,0.00,VWS V14.01,2013-04-13 17:51:00,
2013-04-13 13:56:00,80.8,49.8,29.97,WNW,291,3.6,4.0,34,0.00,,---,0.00,VWS V14.01,2013-04-13 17:56:00,
2013-04-13 14:01:00,81.3,52.6,29.94,East,85,3.6,3.6,37,0.00,,---,0.00,VWS V14.01,2013-04-13 18:01:00,
2013-04-13 14:06:00,81.9,53.1,29.94,WNW,284,4.0,6.3,37,0.00,,---,0.00,VWS V14.01,2013-04-13 18:06:00,
2013-04-13 14:11:00,81.9,53.1,29.94,NW,320,3.6,3.6,37,0.00,,---,0.00,VWS V14.01,2013-04-13 18:11:00,
2013-04-13 14:17:00,81.7,50.6,29.94,NE,44,2.2,5.8,34,0.00,,---,0.00,VWS V14.01,2013-04-13 18:17:00,
2013-04-13 14:22:00,80.8,49.8,29.94,WSW,246,0.0,0.0,34,0.00,,---,0.00,VWS V14.01,2013-04-13 18:22:00,
2013-04-13 14:27:00,80.6,49.7,29.94,NNE,20,2.2,2.7,34,0.00,,---,0.00,VWS V14.01,2013-04-13 18:27:00,
2013-04-13 14:32:00,80.2,50.1,29.94,NNE,13,0.0,0.0,35,0.00,,---,0.00,VWS V14.01,2013-04-13 18:32:00,
2013-04-13 14:38:00,80.1,50.0,29.94,West,278,0.0,0.0,35,0.00,,---,0.00,VWS V14.01,2013-04-13 18:38:00,
2013-04-13 14:43:00,80.1,50.0,29.94,NNW,336,0.0,0.0,35,0.00,,---,0.00,VWS V14.01,2013-04-13 18:43:00,
2013-04-13 14:48:00,80.1,50.0,29.94,NNW,342,0.0,0.0,35,0.00,,---,0.00,VWS V14.01,2013-04-13 18:48:00,
2013-04-13 14:53:00,80.6,49.7,29.94,NW,307,3.6,4.0,34,0.00,,---,0.00,VWS V14.01,2013-04-13 18:53:00,
2013-04-13 14:58:00,81.0,50.0,29.94,East,93,0.0,0.0,34,0.00,,---,0.00,VWS V14.01,2013-04-13 18:58:00,
2013-04-13 15:03:00,81.0,50.0,29.94,WNW,284,2.2,2.2,34,0.00,,---,0.00,VWS V14.01,2013-04-13 19:03:00,
2013-04-13 15:08:00,80.6,49.7,29.94,ENE,60,0.0,0.0,34,0.00,,---,0.00,VWS V14.01,2013-04-13 19:08:00,
2013-04-13 15:13:00,80.4,50.3,29.94,NE,42,0.0,3.6,35,0.00,,---,0.00,VWS V14.01,2013-04-13 19:13:00,
2013-04-13 15:18:00,80.4,50.3,29.94,SSW,212,0.0,0.0,35,0.00,,---,0.00,VWS V14.01,2013-04-13 19:18:00,
2013-04-13 15:23:00,81.1,50.1,29.94,NE,40,4.9,4.9,34,0.00,,---,0.00,VWS V14.01,2013-04-13 19:23:00,
2013-04-13 15:28:00,81.3,50.3,29.94,ESE,106,0.0,0.0,34,0.00,,---,0.00,VWS V14.01,2013-04-13 19:28:00,
2013-04-13 15:33:00,81.3,50.3,29.94,North,6,4.0,4.0,34,0.00,,---,0.00,VWS V14.01,2013-04-13 19:33:00,
2013-04-13 15:38:00,81.3,50.3,29.94,NNW,334,0.0,2.7,34,0.00,,---,0.00,VWS V14.01,2013-04-13 19:38:00,
2013-04-13 15:43:00,81.9,50.8,29.94,NE,43,0.0,0.0,34,0.00,,---,0.00,VWS V14.01,2013-04-13 19:43:00,
2013-04-13 15:48:00,82.2,51.1,29.94,North,3,2.7,3.6,34,0.00,,---,0.00,VWS V14.01,2013-04-13 19:48:00,
2013-04-13 15:53:00,82.4,51.2,29.94,SW,223,0.0,0.0,34,0.00,,---,0.00,VWS V14.01,2013-04-13 19:53:00,
2013-04-13 15:58:00,82.8,51.6,29.91,SW,232,3.6,4.9,34,0.00,,---,0.00,VWS V14.01,2013-04-13 19:58:00,
2013-04-13 16:03:00,82.8,51.6,29.91,SW,222,3.1,3.6,34,0.00,,---,0.00,VWS V14.01,2013-04-13 20:03:00,
2013-04-13 16:08:00,82.9,51.7,29.91,SW,217,3.1,4.0,34,0.00,,---,0.00,VWS V14.01,2013-04-13 20:08:00,
2013-04-13 16:13:00,83.1,51.9,29.91,WNW,292,2.7,2.7,34,0.00,,---,0.00,VWS V14.01,2013-04-13 20:13:00,
2013-04-13 16:18:00,83.3,52.0,29.91,SSE,164,2.2,3.6,34,0.00,,---,0.00,VWS V14.01,2013-04-13 20:18:00,
2013-04-13 16:23:00,82.9,51.7,29.91,ENE,62,0.0,2.7,34,0.00,,---,0.00,VWS V14.01,2013-04-13 20:23:00,
2013-04-13 16:28:00,83.1,51.9,29.91,WNW,300,2.7,4.9,34,0.00,,---,0.00,VWS V14.01,2013-04-13 20:28:00,
2013-04-13 16:33:00,83.5,52.2,29.91,NE,53,2.2,2.7,34,0.00,,---,0.00,VWS V14.01,2013-04-13 20:33:00,
2013-04-13 16:38:00,84.0,52.7,29.91,WSW,238,3.1,3.6,34,0.00,,---,0.00,VWS V14.01,2013-04-13 20:38:00,
2013-04-13 16:43:00,83.7,52.3,29.91,WSW,241,2.7,4.9,34,0.00,,---,0.00,VWS V14.01,2013-04-13 20:43:00,
2013-04-13 16:48:00,83.3,52.0,29.91,North,3,0.0,2.7,34,0.00,,---,0.00,VWS V14.01,2013-04-13 20:48:00,
2013-04-13 16:53:00,83.3,52.0,29.91,North,0,2.7,3.1,34,0.00,,---,0.00,VWS V14.01,2013-04-13 20:53:00,
2013-04-13 16:58:00,83.3,52.0,29.91,WNW,289,0.0,3.6,34,0.00,,---,0.00,VWS V14.01,2013-04-13 20:58:00,
2013-04-13 17:03:00,83.3,52.0,29.91,South,187,0.0,0.0,34,0.00,,---,0.00,VWS V14.01,2013-04-13 21:03:00,
2013-04-13 17:08:00,83.5,52.2,29.91,NE,51,2.2,2.7,34,0.00,,---,0.00,VWS V14.01,2013-04-13 21:08:00,
2013-04-13 17:13:00,83.3,52.0,29.91,NNE,25,0.0,0.0,34,0.00,,---,0.00,VWS V14.01,2013-04-13 21:13:00,
2013-04-13 17:18:00,83.3,52.0,29.91,NNW,343,0.0,0.0,34,0.00,,---,0.00,VWS V14.01,2013-04-13 21:18:00,
2013-04-13 17:23:00,83.1,51.9,29.91,WSW,237,3.1,4.9,34,0.00,,---,0.00,VWS V14.01,2013-04-13 21:23:00,
2013-04-13 17:28:00,83.3,52.0,29.91,WSW,249,2.2,3.6,34,0.00,,---,0.00,VWS V14.01,2013-04-13 21:28:00,
2013-04-13 17:33:00,83.5,52.2,29.91,NE,46,2.2,2.2,34,0.00,,---,0.00,VWS V14.01,2013-04-13 21:33:00,
2013-04-13 17:38:00,83.5,52.2,29.91,SW,227,0.0,0.0,34,0.00,,---,0.00,VWS V14.01,2013-04-13 21:38:00,
2013-04-13 17:43:00,83.5,52.2,29.91,WNW,297,0.0,5.8,34,0.00,,---,0.00,VWS V14.01,2013-04-13 21:43:00,
2013-04-13 17:48:00,83.7,52.3,29.91,SW,220,5.8,5.8,34,0.00,,---,0.00,VWS V14.01,2013-04-13 21:48:00,
2013-04-13 17:54:00,83.5,52.2,29.91,West,278,0.0,2.7,34,0.00,,---,0.00,VWS V14.01,2013-04-13 21:54:00,
2013-04-13 17:59:00,83.3,52.0,29.91,West,259,0.0,3.6,34,0.00,,---,0.00,VWS V14.01,2013-04-13 21:59:00,
2013-04-13 18:04:00,83.3,52.0,29.91,West,265,0.0,5.4,34,0.00,,---,0.00,VWS V14.01,2013-04-13 22:04:00,
2013-04-13 18:09:00,83.1,51.9,29.91,West,266,2.7,6.7,34,0.00,,---,0.00,VWS V14.01,2013-04-13 22:09:00,
2013-04-13 18:14:00,82.9,51.7,29.91,WNW,294,0.0,2.7,34,0.00,,---,0.00,VWS V14.01,2013-04-13 22:14:00,
2013-04-13 18:19:00,82.9,51.7,29.91,WNW,293,0.0,3.1,34,0.00,,---,0.00,VWS V14.01,2013-04-13 22:19:00,
2013-04-13 18:24:00,82.6,51.4,29.91,WSW,247,3.1,4.0,34,0.00,,---,0.00,VWS V14.01,2013-04-13 22:24:00,
2013-04-13 18:29:00,82.4,51.2,29.94,SW,230,0.0,0.0,34,0.00,,---,0.00,VWS V14.01,2013-04-13 22:29:00,
2013-04-13 18:34:00,82.4,51.2,29.94,WSW,245,2.7,2.7,34,0.00,,---,0.00,VWS V14.01,2013-04-13 22:34:00,
2013-04-13 18:39:00,82.4,51.2,29.94,West,261,2.2,2.7,34,0.00,,---,0.00,VWS V14.01,2013-04-13 22:39:00,
2013-04-13 18:44:00,82.2,51.1,29.94,NW,318,0.0,0.0,34,0.00,,---,0.00,VWS V14.01,2013-04-13 22:44:00,
2013-04-13 18:49:00,82.0,50.9,29.94,WNW,298,0.0,0.0,34,0.00,,---,0.00,VWS V14.01,2013-04-13 22:49:00,
2013-04-13 18:54:00,81.7,50.6,29.94,WSW,240,2.7,2.7,34,0.00,,---,0.00,VWS V14.01,2013-04-13 22:54:00,
2013-04-13 18:59:00,81.7,50.6,29.94,SSW,211,0.0,2.7,34,0.00,,---,0.00,VWS V14.01,2013-04-13 22:59:00,
2013-04-13 19:04:00,81.3,50.3,29.94,WSW,251,0.0,0.0,34,0.00,,---,0.00,VWS V14.01,2013-04-13 23:04:00,
2013-04-13 19:09:00,81.0,50.0,29.94,WSW,251,0.0,0.0,34,0.00,,---,0.00,VWS V14.01,2013-04-13 23:09:00,
2013-04-13 19:14:00,80.4,50.3,29.94,WSW,251,0.0,0.0,35,0.00,,---,0.00,VWS V14.01,2013-04-13 23:14:00,
2013-04-13 19:19:00,79.5,49.5,29.94,WSW,251,0.0,0.0,35,0.00,,---,0.00,VWS V14.01,2013-04-13 23:19:00,
2013-04-13 19:24:00,78.6,48.7,29.94,WSW,251,0.0,0.0,35,0.00,,---,0.00,VWS V14.01,2013-04-13 23:24:00,
2013-04-13 19:29:00,77.7,47.9,29.94,WSW,251,0.0,0.0,35,0.00,,---,0.00,VWS V14.01,2013-04-13 23:29:00,
2013-04-13 19:34:00,76.5,46.8,29.94,WSW,251,0.0,0.0,35,0.00,,---,0.00,VWS V14.01,2013-04-13 23:34:00,
2013-04-13 19:39:00,75.2,45.7,29.94,WSW,246,0.0,0.0,35,0.00,,---,0.00,VWS V14.01,2013-04-13 23:39:00,
2013-04-13 19:44:00,73.9,45.3,29.94,WSW,246,0.0,0.0,36,0.00,,---,0.00,VWS V14.01,2013-04-13 23:44:00,
2013-04-13 19:49:00,73.0,44.5,29.94,WSW,246,0.0,0.0,36,0.00,,---,0.00,VWS V14.01,2013-04-13 23:49:00,
2013-04-13 19:54:00,72.1,43.7,29.94,WSW,246,0.0,0.0,36,0.00,,---,0.00,VWS V14.01,2013-04-13 23:54:00,
2013-04-13 19:59:00,71.1,43.5,29.94,WSW,246,0.0,0.0,37,0.00,,---,0.00,VWS V14.01,2013-04-13 23:59:00,
2013-04-13 20:04:00,70.2,42.7,29.94,WSW,246,0.0,0.0,37,0.00,,---,0.00,VWS V14.01,2013-04-14 00:04:00,
2013-04-13 20:09:00,69.3,41.9,29.94,WSW,246,0.0,0.0,37,0.00,,---,0.00,VWS V14.01,2013-04-14 00:09:00,
2013-04-13 20:14:00,68.5,41.3,29.94,WSW,246,0.0,0.0,37,0.00,,---,0.00,VWS V14.01,2013-04-14 00:14:00,
2013-04-13 20:19:00,67.6,40.5,29.94,WSW,246,0.0,0.0,37,0.00,,---,0.00,VWS V14.01,2013-04-14 00:19:00,
2013-04-13 20:24:00,66.7,39.7,29.94,WSW,246,0.0,0.0,37,0.00,,---,0.00,VWS V14.01,2013-04-14 00:24:00,
2013-04-13 20:29:00,66.0,39.7,29.94,WSW,246,0.0,0.0,38,0.00,,---,0.00,VWS V14.01,2013-04-14 00:29:00,
2013-04-13 20:34:00,65.3,39.1,29.94,WSW,246,0.0,0.0,38,0.00,,---,0.00,VWS V14.01,2013-04-14 00:34:00,
2013-04-13 20:39:00,64.8,38.6,29.94,WSW,246,0.0,0.0,38,0.00,,---,0.00,VWS V14.01,2013-04-14 00:39:00,
2013-04-13 20:44:00,64.0,37.9,29.94,WSW,246,0.0,0.0,38,0.00,,---,0.00,VWS V14.01,2013-04-14 00:44:00,
2013-04-13 20:49:00,63.5,37.5,29.94,WSW,246,0.0,0.0,38,0.00,,---,0.00,VWS V14.01,2013-04-14 00:49:00,
2013-04-13 20:54:00,63.0,37.0,29.94,WSW,246,0.0,0.0,38,0.00,,---,0.00,VWS V14.01,2013-04-14 00:54:00,
2013-04-13 20:59:00,62.4,37.2,29.94,WSW,246,0.0,0.0,39,0.00,,---,0.00,VWS V14.01,2013-04-14 00:59:00,
2013-04-13 21:04:00,62.1,36.8,29.94,WSW,246,0.0,0.0,39,0.00,,---,0.00,VWS V14.01,2013-04-14 01:04:00,
2013-04-13 21:09:00,61.7,36.5,29.94,WSW,246,0.0,0.0,39,0.00,,---,0.00,VWS V14.01,2013-04-14 01:09:00,
2013-04-13 21:15:00,61.5,36.3,29.97,WSW,246,0.0,0.0,39,0.00,,---,0.00,VWS V14.01,2013-04-14 01:15:00,
2013-04-13 21:20:00,61.2,36.0,29.97,WSW,246,0.0,0.0,39,0.00,,---,0.00,VWS V14.01,2013-04-14 01:20:00,
2013-04-13 21:25:00,61.0,35.9,29.97,WSW,246,0.0,0.0,39,0.00,,---,0.00,VWS V14.01,2013-04-14 01:25:00,
2013-04-13 21:30:00,60.8,35.7,29.97,ENE,58,0.0,0.0,39,0.00,,---,0.00,VWS V14.01,2013-04-14 01:30:00,
2013-04-13 21:35:00,61.0,35.9,29.97,ENE,58,0.0,0.0,39,0.00,,---,0.00,VWS V14.01,2013-04-14 01:35:00,
2013-04-13 21:40:00,61.0,35.9,29.97,ENE,62,0.0,2.2,39,0.00,,---,0.00,VWS V14.01,2013-04-14 01:40:00,
2013-04-13 21:45:00,61.3,36.2,29.97,ENE,61,2.7,3.1,39,0.00,,---,0.00,VWS V14.01,2013-04-14 01:45:00,
2013-04-13 21:50:00,61.7,36.5,29.97,ENE,61,0.0,0.0,39,0.00,,---,0.00,VWS V14.01,2013-04-14 01:50:00,
2013-04-13 21:55:00,62.1,36.8,29.97,NE,45,0.0,0.0,39,0.00,,---,0.00,VWS V14.01,2013-04-14 01:55:00,
2013-04-13 22:00:00,62.6,38.6,29.97,ENE,64,0.0,0.0,41,0.00,,---,0.00,VWS V14.01,2013-04-14 02:00:00,
2013-04-13 22:05:00,63.0,38.9,29.97,SE,124,0.0,0.0,41,0.00,,---,0.00,VWS V14.01,2013-04-14 02:05:00,
2013-04-13 22:10:00,63.3,39.2,29.97,ENE,75,0.0,0.0,41,0.00,,---,0.00,VWS V14.01,2013-04-14 02:10:00,
2013-04-13 22:15:00,63.5,39.4,30.00,NE,55,0.0,2.7,41,0.00,,---,0.00,VWS V14.01,2013-04-14 02:15:00,
2013-04-13 22:20:00,63.7,39.6,30.00,NE,55,0.0,2.7,41,0.00,,---,0.00,VWS V14.01,2013-04-14 02:20:00,
2013-04-13 22:25:00,63.9,39.7,30.00,SSW,197,0.0,0.0,41,0.00,,---,0.00,VWS V14.01,2013-04-14 02:25:00,
2013-04-13 22:30:00,63.9,39.7,30.00,SE,144,0.0,0.0,41,0.00,,---,0.00,VWS V14.01,2013-04-14 02:30:00,
2013-04-13 22:35:00,63.7,39.6,30.00,ESE,115,0.0,0.0,41,0.00,,---,0.00,VWS V14.01,2013-04-14 02:35:00,
2013-04-13 22:40:00,63.7,39.6,30.00,East,89,0.0,0.0,41,0.00,,---,0.00,VWS V14.01,2013-04-14 02:40:00,
2013-04-13 22:45:00,63.5,39.4,30.00,ENE,61,0.0,0.0,41,0.00,,---,0.00,VWS V14.01,2013-04-14 02:45:00,
2013-04-13 22:50:00,63.3,39.2,30.00,ENE,58,0.0,0.0,41,0.00,,---,0.00,VWS V14.01,2013-04-14 02:50:00,
2013-04-13 22:55:00,63.1,39.1,30.00,ENE,58,0.0,0.0,41,0.00,,---,0.00,VWS V14.01,2013-04-14 02:55:00,
2013-04-13 23:00:00,62.8,38.8,30.00,ENE,58,0.0,0.0,41,0.00,,---,0.00,VWS V14.01,2013-04-14 03:00:00,
2013-04-13 23:05:00,62.6,38.6,30.00,ENE,58,0.0,0.0,41,0.00,,---,0.00,VWS V14.01,2013-04-14 03:05:00,
2013-04-13 23:10:00,62.4,38.4,30.00,ENE,58,0.0,0.0,41,0.00,,---,0.00,VWS V14.01,2013-04-14 03:10:00,
2013-04-13 23:15:00,62.1,38.1,30.00,ENE,58,0.0,0.0,41,0.00,,---,0.00,VWS V14.01,2013-04-14 03:15:00,
2013-04-13 23:20:00,61.7,37.8,30.00,ENE,58,0.0,0.0,41,0.00,,---,0.00,VWS V14.01,2013-04-14 03:20:00,
2013-04-13 23:25:00,61.3,37.5,30.00,ENE,58,0.0,0.0,41,0.00,,---,0.00,VWS V14.01,2013-04-14 03:25:00,
2013-04-13 23:30:00,61.0,37.1,30.00,ENE,58,0.0,0.0,41,0.00,,---,0.00,VWS V14.01,2013-04-14 03:30:00,
2013-04-13 23:35:00,60.6,37.4,30.00,ENE,58,0.0,0.0,42,0.00,,---,0.00,VWS V14.01,2013-04-14 03:35:00,
2013-04-13 23:40:00,60.3,37.1,30.00,ENE,58,0.0,0.0,42,0.00,,---,0.00,VWS V14.01,2013-04-14 03:40:00,
2013-04-13 23:45:00,60.1,38.1,30.00,ENE,58,0.0,0.0,44,0.00,,---,0.00,VWS V14.01,2013-04-14 03:45:00,
2013-04-13 23:50:00,59.7,37.8,30.00,ENE,58,0.0,0.0,44,0.00,,---,0.00,VWS V14.01,2013-04-14 03:50:00,
2013-04-13 23:55:00,59.5,37.6,30.00,ENE,58,0.0,0.0,44,0.00,,---,0.00,VWS V14.01,2013-04-14 03:55:00,